Tracking 29892 objects as of 21-Nov-2024
HD Live streaming from Space Station
objects crossing your sky now

STARLINK-31038

Track STARLINK-31038 now!
10-day predictions
STARLINK-31038 is classified as:


NORAD ID: 58605
Int'l Code: 2023-200S
Perigee: 565.3 km
Apogee: 567.2 km
Inclination: 43.0 °
Period: 95.8 minutes
Semi major axis: 6937 km
RCS: Unknown
Launch date: December 19, 2023
Source: United States (US)
Launch site: AIR FORCE EASTERN TEST RANGE (AFETR)
Your satellite tracking list
Your tracking list is empty




NASA's NSSDC Master Catalog

Two Line Element Set (TLE):
1 58605U 23200S   24326.08578419 -.00001198  00000-0 -73640-4 0  9995
2 58605  43.0044 223.5416 0001337 267.6828  92.3861 15.02531835 52376
Source of the keplerian elements: AFSPC